Flag for Canada Weather past 2 weeks in Yarmouth County, Nova Scotia, Canada

Now
64 °F

Sunny.


Feels Like: 64 °F
Forecast: N/A
Wind: 9 mph from Northeast

Location: Yarmouth

Current Time: Aug 29, 2014 at 7:33:30 PM

Latest Report: Aug 29, 2014 at 7:00 PM


Visibility: 15 mi

Pressure: 30.17 "Hg

Humidity: 56%

Dew point: 48 °F

Location of Yarmouth CountyLocation

Historic Weather in Yarmouth County — Graph

°F

Yarmouth County temperature yesterday

Maximum temperature yesterday: 73 °F (at 1:00 PM)
Minimum temperature yesterday: 61 °F (at 2:00 AM)
Average temperature yesterday: 65 °F

Past Weeks' High & Low Weather Summary

 TemperatureHumidityPressure
High75 °F (Aug 21, 12:00 PM)100% (Aug 14, 8:00 PM)30.21 "Hg (Aug 14, 8:00 PM)
Low50 °F (Aug 25, 6:00 AM)49% (Aug 29, 3:00 PM)29.66 "Hg (Aug 28, 4:00 PM)
Average62 °F86%29.97 "Hg
* Reported Aug 14 6:00 PM — Aug 29 6:00 PM, Yarmouth County, Weather by CustomWeather, © 2014

Note: Actual official high and low records may vary slightly from our data, if they occured in-between our weather recording intervals... More about our weather records

Advertising

Yarmouth County weather history for previous 24 hours

 ConditionsComfort  
Time TempWeatherWind HumidityBarometerVisibility
6:00 PM
Aug 29
66 °FSunny.13 mph52%30.15 "Hg15 mi
4:00 PM66 °FPassing clouds.18 mph49%30.11 "Hg15 mi
3:00 PM66 °FPassing clouds.18 mph49%30.10 "Hg15 mi
2:00 PM66 °FPassing clouds.18 mph52%30.10 "Hg15 mi
1:00 PM66 °FPassing clouds.17 mph52%30.08 "Hg15 mi
12:00 PM64 °FScattered clouds.16 mph56%30.06 "Hg15 mi
11:00 AM63 °FScattered clouds.13 mph64%30.04 "Hg15 mi
10:00 AM59 °FPartly sunny.17 mph68%30.03 "Hg15 mi
9:00 AM57 °FPassing clouds.17 mph72%30.01 "Hg15 mi
8:00 AM55 °FPassing clouds.14 mph82%29.98 "Hg15 mi
7:00 AM55 °FOvercast.17 mph88%29.95 "Hg15 mi
6:00 AM57 °FPassing clouds.20 mph88%29.91 "Hg15 mi
5:00 AM57 °FOvercast.16 mph88%29.88 "Hg15 mi
4:00 AM59 °FOvercast.14 mph88%29.85 "Hg15 mi
3:00 AM59 °FPassing clouds.15 mph88%29.83 "Hg15 mi
2:00 AM61 °FOvercast.17 mph88%29.81 "Hg15 mi
1:00 AM59 °FOvercast.16 mph88%29.80 "Hg15 mi
12:00 AM59 °FClear.13 mph82%29.78 "Hg15 mi
11:00 PM
Aug 28
61 °FClear.15 mph77%29.75 "Hg15 mi
10:00 PM63 °FClear.18 mph73%29.74 "Hg15 mi
9:00 PM63 °FPassing clouds.18 mph77%29.71 "Hg15 mi
8:00 PM63 °FPassing clouds.13 mph77%29.69 "Hg15 mi
7:00 PM66 °FPassing clouds.12 mph78%29.67 "Hg15 mi
Weather by CustomWeather, © 2014

See weather overviewHow to use our weather pages